Theta_e
322 322 322 321 322 323 327 333 333 336 339 338 337 336 336 335 336 342 342 342 346 345 345 346 345 344 347 348 349 350 351 352 352 352 352 353 353 353 353 353 353 350 347 347 344 343 346 348 349 350 348 346 346 346 346 347 346 346 345 345 346 345 346 347 347 348 348 348 348 347 346 346 345 343 344 347 347 346 347 348 348 348 347 347 347 348
322 321 322 322 323 324 325 330 334 336 338 338 336 335 336 335 336 341 341 341 345 345 345 346 345 345 347 348 350 351 350 351 352 352 352 352 352 353 353 353 353 351 350 349 346 343 345 347 349 350 348 346 345 345 346 347 348 347 346 345 345 345 345 346 347 349 349 348 348 347 345 345 345 345 346 346 344 345 347 348 347 347 346 347 346 345
321 321 322 323 323 324 325 327 330 335 338 338 336 334 333 334 335 336 339 342 344 344 344 345 344 345 346 347 350 351 350 351 352 351 351 352 352 352 352 353 353 352 353 351 347 345 345 347 349 350 348 347 346 345 346 347 348 348 347 345 344 344 345 346 347 347 347 347 346 346 345 345 346 346 345 344 344 346 348 348 347 346 347 346 343 341
319 320 322 322 321 323 325 325 327 332 337 337 335 333 331 334 334 332 336 342 343 342 343 344 344 344 345 346 349 351 351 351 351 351 351 351 351 352 351 352 352 352 352 351 349 348 347 347 350 350 349 348 347 347 346 347 348 348 348 346 345 345 346 347 347 346 346 346 347 347 347 346 346 345 345 345 346 347 348 347 346 345 345 342 339 337
320 321 322 321 321 324 325 325 326 329 332 335 335 334 332 334 335 334 336 341 342 340 342 342 339 340 345 347 348 350 350 350 350 350 350 350 350 351 350 351 351 351 350 350 349 349 348 347 349 349 348 348 348 348 347 347 348 348 348 348 348 348 347 348 348 347 347 348 348 347 348 347 347 346 346 347 347 347 347 345 343 342 343 340 336 336
321 321 321 320 322 325 325 325 327 327 329 331 334 335 334 335 337 338 339 339 336 335 340 340 333 334 343 347 347 349 350 349 350 350 350 350 349 349 350 350 350 350 349 348 346 345 345 345 346 347 348 348 348 347 346 346 347 348 348 348 349 349 349 349 348 347 349 349 348 346 346 346 346 347 346 345 345 345 344 343 341 341 340 337 336 335
321 320 320 322 322 324 326 326 327 328 327 327 331 332 333 335 336 337 339 335 331 332 339 341 332 331 338 344 347 349 351 350 350 350 350 350 349 349 349 349 349 349 349 348 346 343 341 340 342 344 345 345 346 346 345 346 346 348 348 348 349 349 350 350 348 348 349 349 348 346 345 345 345 345 344 342 343 344 343 342 342 341 338 336 335 334
320 320 320 322 322 324 325 325 327 329 326 325 329 330 331 334 334 337 338 333 333 335 338 341 336 331 331 339 348 350 351 352 351 350 350 351 350 349 348 348 348 348 348 348 347 344 340 337 338 340 341 342 343 343 344 345 346 347 348 348 349 350 350 349 347 347 348 348 347 346 346 345 344 345 344 343 344 344 343 342 341 340 338 336 335 334
321 321 321 322 322 323 324 326 327 328 327 327 328 329 331 333 335 338 336 332 335 334 332 337 337 332 330 337 347 349 350 352 352 351 350 351 351 350 349 348 348 348 347 346 345 343 340 338 338 339 340 341 341 342 344 345 346 347 348 348 349 349 350 349 346 346 347 347 346 347 347 345 344 345 345 345 346 346 345 343 342 341 339 338 336 334
321 321 322 322 322 322 324 326 326 327 328 327 326 327 329 333 336 338 335 333 334 331 330 335 336 332 330 335 343 347 348 351 352 351 350 351 351 350 350 348 348 348 347 346 346 344 342 341 339 339 341 341 342 342 343 345 346 346 348 348 349 349 350 348 345 345 346 346 345 346 346 345 345 346 346 345 346 347 347 345 344 342 341 339 337 336
322 322 322 322 323 324 324 325 325 327 327 325 326 327 328 332 336 337 336 335 332 329 329 333 336 333 328 331 342 347 348 349 349 351 351 351 352 351 350 349 348 349 347 347 346 345 344 343 342 341 341 342 342 343 344 344 345 346 347 348 349 349 349 346 344 344 345 345 344 344 345 345 345 346 347 346 345 346 347 345 344 344 342 340 338 337
322 322 322 322 322 324 324 324 325 327 325 325 328 327 326 329 331 331 331 332 329 327 328 332 337 334 326 329 341 347 348 348 348 349 349 349 351 351 350 350 349 349 348 347 346 346 345 344 344 343 343 343 343 343 344 344 345 346 347 348 349 349 347 345 343 344 344 344 343 343 344 345 345 347 348 347 345 345 345 344 344 344 342 340 338 336
321 323 323 321 322 324 324 324 324 325 325 326 328 325 323 323 325 326 326 328 327 326 328 331 335 334 330 333 341 345 344 344 345 347 348 349 350 350 350 349 349 349 349 348 347 346 346 346 345 344 344 344 344 344 344 345 344 345 347 348 349 349 347 345 343 343 343 343 342 342 343 344 345 347 348 348 346 346 346 345 344 343 341 338 335 333
319 321 321 320 321 324 324 322 322 323 325 325 325 323 322 322 322 324 325 326 326 325 327 332 334 332 331 336 342 342 341 342 344 345 346 347 349 349 349 349 348 348 349 348 348 347 347 347 345 344 344 344 344 345 345 345 345 345 346 348 349 349 348 345 343 342 342 341 341 342 343 343 344 346 347 347 346 346 346 346 345 343 339 334 331 329
317 318 320 321 322 323 324 323 324 326 325 326 327 326 323 322 321 322 323 323 323 325 328 332 332 328 328 334 341 342 340 341 341 342 344 345 346 346 347 348 347 348 349 348 348 348 347 347 346 344 343 344 345 345 345 345 345 345 346 347 349 349 349 346 343 341 340 340 341 341 342 342 342 343 344 344 344 344 344 345 344 341 335 331 328 327
316 317 320 321 321 322 324 324 326 327 324 325 328 326 323 325 325 323 323 324 323 324 328 331 331 331 334 337 341 339 339 340 340 341 342 342 344 345 345 346 347 347 348 349 348 348 348 347 346 345 344 344 344 345 346 345 345 344 345 346 348 349 349 346 342 340 339 339 340 341 341 341 340 340 342 342 342 341 342 343 342 338 332 327 326 327
316 317 322 321 320 322 323 324 325 324 323 324 324 323 324 328 328 325 322 325 324 321 326 330 329 331 334 334 339 340 339 341 342 342 341 342 344 345 345 346 346 346 347 347 347 347 347 346 346 346 345 344 344 345 345 345 344 343 343 345 347 348 349 347 342 339 338 339 339 339 340 339 338 339 340 339 339 340 342 343 342 337 330 326 326 326
318 317 322 323 321 321 323 324 324 325 325 324 322 323 326 326 329 330 325 324 323 320 324 329 326 326 326 327 338 343 339 339 342 342 341 342 344 344 344 345 344 345 345 345 346 346 346 346 345 346 345 344 344 344 345 345 344 343 343 344 346 348 349 347 342 338 336 337 338 337 338 337 337 338 337 336 336 338 342 344 343 335 327 324 323 323
320 316 319 323 322 321 322 322 322 324 325 323 323 327 326 322 324 330 325 323 322 320 322 326 326 326 324 326 333 338 340 343 345 346 342 340 343 344 344 345 344 343 344 344 345 345 345 346 346 346 345 344 344 344 344 344 344 344 344 344 345 347 348 348 345 340 336 336 335 334 335 336 336 335 335 334 334 337 342 346 344 335 326 322 321 319
321 318 318 321 323 322 322 320 318 320 322 323 325 326 326 324 325 327 325 322 322 321 321 323 324 325 327 332 335 335 341 347 348 351 346 341 343 344 344 345 344 343 344 343 344 344 344 345 346 346 345 345 344 344 344 345 345 345 345 344 345 346 348 349 347 342 336 334 333 332 333 335 335 335 333 332 335 339 342 344 344 338 328 322 320 318
323 320 318 320 321 320 320 320 319 320 322 321 322 322 323 325 325 325 325 323 321 322 322 322 321 323 331 340 341 339 343 345 347 351 350 345 343 343 343 344 344 342 343 342 343 344 344 345 346 346 345 345 345 344 344 345 346 345 345 345 344 345 347 348 347 344 339 335 332 332 332 333 334 334 333 333 337 340 343 346 346 339 330 324 320 318
324 322 319 318 318 317 319 322 322 322 323 322 322 323 322 324 323 321 323 324 322 322 323 323 320 321 332 341 342 344 343 340 343 346 345 345 344 342 343 341 341 341 341 342 342 342 344 344 345 345 346 345 345 345 345 345 346 346 346 345 344 345 346 347 348 345 342 338 335 333 331 332 334 334 334 334 338 343 346 347 343 332 324 322 320 318
326 326 321 319 319 321 322 323 323 321 323 323 323 325 325 326 323 318 320 323 322 323 324 323 320 322 337 347 341 342 343 338 340 343 341 343 342 340 341 340 341 340 340 341 342 343 344 344 345 345 345 345 345 345 345 345 346 345 346 345 345 345 345 346 347 345 343 342 339 335 333 332 332 334 337 339 344 348 348 346 340 328 320 320 319 316
326 326 322 319 322 324 322 322 322 322 322 321 322 325 324 325 324 322 327 329 325 322 322 322 319 322 340 357 347 342 342 338 338 340 341 342 341 338 339 339 339 339 340 341 343 344 345 345 345 345 345 345 345 345 346 345 346 345 345 346 346 346 346 346 347 346 345 344 342 340 337 334 335 338 340 342 344 347 347 347 346 336 323 319 318 316
323 326 324 319 319 321 320 321 321 321 322 320 322 325 324 326 326 325 333 334 325 322 323 321 319 321 339 357 350 343 340 336 336 339 340 343 342 341 340 339 339 339 340 342 343 343 344 345 345 345 345 346 346 346 346 345 345 346 346 346 346 347 347 347 348 347 346 346 346 344 341 341 344 342 338 337 338 342 346 347 348 342 327 319 319 318
325 329 325 319 318 318 318 319 320 321 322 322 323 324 323 326 325 324 328 326 323 327 327 321 319 325 341 352 348 345 343 340 340 340 340 341 341 341 340 338 339 340 340 342 342 343 344 344 345 345 345 346 346 346 346 346 346 346 346 347 347 347 347 347 348 347 348 348 348 347 347 348 349 342 333 332 333 337 343 345 347 345 332 320 319 318
332 334 328 323 322 320 320 324 326 326 322 319 322 322 322 324 324 326 326 322 325 329 326 325 327 328 334 343 344 347 347 346 345 344 343 343 339 339 341 340 340 340 340 341 342 342 343 344 345 346 346 346 346 346 346 346 346 347 347 347 347 347 348 348 348 348 348 349 350 352 352 350 348 340 331 328 329 332 336 340 345 344 331 323 321 317
331 328 326 328 327 324 325 327 328 326 322 320 322 321 322 324 324 325 323 325 333 327 319 332 344 332 329 340 345 347 349 352 355 351 346 343 339 340 341 340 340 340 340 342 342 342 343 343 345 345 346 346 346 346 346 346 347 347 347 346 347 348 348 348 349 349 350 353 354 355 354 351 348 344 336 328 328 331 333 334 341 340 329 323 323 318
328 323 323 326 325 325 325 325 326 326 324 322 323 322 323 324 324 323 324 329 336 326 319 338 353 340 332 337 340 342 347 352 353 348 343 341 341 342 342 341 341 341 341 341 342 342 342 342 343 345 345 346 346 346 347 347 347 348 347 347 347 348 349 350 351 352 354 356 356 355 355 353 352 351 347 339 332 331 335 337 341 341 330 323 323 319
326 326 328 324 322 324 324 324 325 325 324 323 323 324 324 324 324 324 325 328 332 328 325 340 352 345 335 334 338 340 341 342 343 341 340 341 341 342 342 342 343 342 341 341 342 341 342 342 343 343 344 344 344 345 346 346 347 347 347 348 349 350 352 353 353 354 356 357 357 356 356 355 354 353 351 347 338 330 333 338 343 345 338 326 322 320
325 328 332 325 320 322 323 323 324 323 323 322 322 324 324 324 324 324 325 328 330 330 330 337 346 344 336 335 340 339 337 338 341 342 341 342 342 343 343 343 343 343 341 341 341 341 341 342 342 343 343 343 343 343 344 344 344 345 347 349 351 351 352 353 354 355 356 357 357 357 356 356 356 354 352 348 342 334 331 332 336 344 345 334 324 322
329 328 330 326 321 321 322 323 323 322 322 321 320 323 324 322 323 324 325 328 328 331 333 333 334 336 336 338 339 338 338 339 343 345 344 341 341 343 343 342 342 342 341 341 342 341 341 341 341 342 341 341 342 342 342 343 345 347 349 350 350 349 350 351 352 353 355 357 357 357 357 356 355 356 351 345 342 340 336 331 328 335 345 342 328 322
332 329 328 326 322 321 324 323 321 321 320 319 320 324 324 324 325 324 325 329 329 330 331 329 328 334 341 340 337 336 339 341 344 345 343 341 340 341 342 341 341 341 340 340 341 341 340 339 339 339 340 340 341 341 342 344 346 347 347 347 347 348 349 350 351 353 354 356 357 356 356 356 355 354 351 346 343 343 342 339 333 330 337 340 329 322
333 330 330 329 323 322 324 323 322 320 318 320 326 328 325 325 326 324 325 329 329 331 335 335 336 343 344 338 337 340 340 341 342 339 337 338 338 339 340 341 342 343 342 342 342 341 339 338 338 339 340 340 341 342 343 345 345 346 345 346 346 347 348 349 350 352 353 355 356 356 356 356 355 353 354 352 350 345 342 343 340 333 334 336 330 327
332 331 332 330 325 324 325 322 320 319 321 327 334 333 328 325 325 328 334 337 335 334 338 339 339 344 343 338 338 341 338 335 334 333 333 334 334 336 338 340 342 343 343 343 342 341 339 338 339 341 341 341 343 344 344 344 343 342 342 342 343 344 346 348 348 349 351 353 355 355 355 356 355 355 355 354 352 348 345 344 343 338 337 335 331 331
331 331 331 329 326 325 324 321 321 323 327 332 334 331 329 327 327 328 332 336 337 336 336 338 337 341 342 339 337 335 334 333 334 334 334 334 334 334 336 337 339 341 342 342 341 342 341 341 340 341 341 343 343 342 339 337 336 337 337 338 340 341 342 343 343 344 347 350 352 353 354 354 354 354 354 353 352 350 347 344 343 341 337 333 332 331
331 332 331 328 327 326 323 321 324 327 329 331 334 333 332 330 330 330 329 333 336 335 335 337 340 339 338 338 336 334 335 337 338 339 337 336 335 335 335 335 337 338 339 341 341 342 342 342 342 343 343 342 339 335 333 332 332 333 335 337 337 337 337 337 338 341 343 346 349 350 351 353 353 353 353 352 351 350 349 345 342 340 336 333 332 328
332 334 333 329 327 327 324 322 324 324 325 330 334 334 333 331 332 335 334 334 335 334 334 335 337 338 337 337 336 336 337 339 340 341 339 337 337 337 337 336 337 337 338 339 341 342 342 342 343 342 339 336 333 332 332 333 334 334 335 334 332 331 333 333 334 337 340 344 347 348 350 351 351 352 352 351 349 348 347 343 339 337 335 333 330 326
330 333 334 329 327 328 325 324 324 323 326 334 335 332 332 331 333 333 330 331 335 335 334 334 335 336 337 337 338 339 340 341 342 342 340 338 338 339 339 339 338 339 340 340 342 342 342 342 340 337 335 333 333 334 335 334 334 333 332 331 330 330 331 331 332 337 341 344 346 347 349 349 349 350 349 348 347 346 343 340 337 336 335 332 330 327
333 334 334 328 327 330 328 325 325 326 331 335 333 331 331 331 334 331 325 329 337 336 334 335 335 335 338 339 339 341 344 344 342 341 341 341 341 340 341 343 342 343 343 343 343 343 341 339 336 334 335 335 334 334 334 332 332 330 329 330 330 330 330 332 336 340 342 343 344 346 347 347 348 348 348 347 346 345 342 339 337 335 334 332 328 326
339 337 335 329 326 330 330 328 328 330 334 334 330 331 332 331 331 328 326 332 338 336 335 337 336 336 339 341 341 341 341 341 341 341 343 345 344 342 343 343 343 343 343 343 344 342 339 338 337 337 337 337 335 334 333 331 330 329 329 330 330 332 334 337 339 341 340 341 342 344 345 345 345 346 346 346 345 343 341 338 335 334 332 328 326 325
336 336 338 334 329 331 331 329 328 329 332 331 330 331 333 331 330 331 332 335 337 336 337 338 337 338 339 338 338 338 337 337 339 340 342 343 342 342 342 342 342 342 342 343 343 341 340 339 340 339 338 337 337 336 334 333 333 333 333 333 334 336 338 339 339 339 339 340 342 343 342 342 343 344 344 344 344 341 338 336 334 333 330 326 325 325
333 335 340 339 334 333 333 331 330 332 331 330 331 333 335 335 335 335 335 334 334 335 335 335 335 336 335 335 335 335 334 334 333 333 333 334 334 335 335 335 337 337 337 339 339 338 339 339 338 338 339 338 338 337 337 337 337 338 338 338 339 339 339 338 339 339 339 342 343 341 340 340 342 343 343 343 342 340 337 335 332 330 328 326 325 324
334 334 339 341 337 336 338 335 333 333 331 329 331 335 337 336 335 334 332 331 331 331 331 331 331 331 332 333 333 332 331 330 328 327 328 328 329 330 330 330 331 330 331 332 332 332 333 333 333 333 334 334 336 339 340 340 340 339 340 341 341 339 339 339 339 339 341 343 342 340 339 340 341 342 342 341 340 337 336 334 331 329 328 328 326 325
337 336 338 339 336 336 339 338 335 332 330 329 330 332 332 331 330 329 329 329 329 328 328 328 328 327 328 329 329 328 329 328 328 329 328 327 327 329 329 329 329 328 328 328 328 329 329 328 329 329 328 330 333 335 337 338 339 340 341 343 343 340 338 338 338 339 342 343 341 340 339 341 341 341 340 339 338 336 334 332 331 331 331 329 327 327
334 335 336 338 336 333 334 335 334 332 329 328 329 329 328 328 327 327 328 328 327 326 326 327 327 326 327 327 327 327 327 326 327 327 327 327 327 327 327 328 327 327 328 328 328 329 328 328 329 329 329 330 331 330 330 330 331 331 332 336 340 340 338 336 337 339 341 342 341 340 340 340 341 340 339 339 337 335 332 331 332 332 330 328 327 329
331 332 334 337 337 334 332 333 333 331 328 327 328 329 328 327 327 326 326 326 325 325 326 326 326 326 327 327 327 326 326 326 326 326 326 326 326 326 326 326 326 327 327 328 327 327 327 328 328 328 328 329 328 328 327 326 327 327 326 328 333 337 337 335 335 339 342 342 341 340 340 340 339 339 339 337 333 330 328 328 329 328 327 327 329 330
329 329 330 334 337 337 336 334 330 328 326 325 327 329 328 327 326 324 324 324 324 324 325 325 325 325 326 326 326 326 326 326 325 325 326 326 326 327 326 326 326 327 327 327 327 327 327 327 327 326 327 327 327 327 327 327 327 328 326 328 333 337 337 335 337 341 342 340 339 339 339 339 339 339 338 334 330 329 330 330 330 329 329 329 329 327
324 327 330 334 335 335 335 332 328 328 328 326 326 327 326 325 324 323 323 323 322 323 323 323 324 325 324 324 325 324 325 326 326 326 326 326 326 326 326 326 327 326 327 328 328 327 326 326 326 326 326 327 327 327 327 327 328 327 327 332 338 339 338 337 339 341 339 338 338 338 338 338 338 337 336 332 328 330 332 332 332 333 331 329 327 325
324 327 330 333 333 333 333 329 329 333 335 330 326 325 325 323 323 323 323 323 323 323 323 323 323 323 323 323 323 324 325 326 326 325 325 327 328 329 329 331 330 329 329 329 329 328 329 329 328 327 327 328 327 327 327 328 329 330 333 337 339 338 337 337 337 336 335 335 336 336 337 337 337 337 336 333 330 331 332 332 331 331 329 326 325 323
323 324 326 329 331 332 331 328 328 331 332 328 325 325 324 324 324 324 323 323 323 323 324 324 324 324 323 322 322 322 323 324 324 324 324 326 327 329 330 332 333 333 333 332 331 331 331 331 330 328 328 330 330 331 332 333 335 338 339 339 337 335 334 334 332 331 331 333 333 333 334 334 334 335 336 334 333 334 332 330 329 327 325 324 323 321
Wind_Speed
9 7 7 9 10 11 11 12 10 8 12 11 8 8 11 9 6 8 7 8 15 10 11 12 9 8 4 5 10 14 17 18 19 19 19 20 21 21 23 23 25 32 34 32 34 33 30 29 27 27 26 25 26 26 26 26 25 25 25 25 25 23 23 23 23 23 23 24 24 23 23 24 23 21 20 19 17 15 13 13 12 13 13 13 13 14
9 9 9 9 11 13 13 12 8 8 11 11 8 7 8 8 5 7 7 9 14 10 8 6 7 8 4 3 9 13 15 18 21 21 20 21 21 21 23 24 27 30 28 29 33 33 31 30 29 28 28 27 27 26 26 26 25 24 24 25 24 23 23 24 24 23 23 23 23 23 22 22 21 20 20 19 16 14 13 13 13 13 13 13 12 12
8 9 9 8 7 10 9 9 8 9 12 10 8 6 6 5 5 6 6 9 11 9 6 5 8 9 4 4 9 14 17 18 21 22 21 21 21 22 23 24 26 24 23 28 32 33 33 33 31 31 30 29 28 27 27 26 24 23 24 24 24 24 24 24 24 24 23 22 22 21 20 19 18 18 18 17 16 15 15 15 15 15 13 12 11 10
7 6 8 6 5 9 7 7 9 8 10 8 7 8 6 7 7 5 6 9 10 4 2 5 7 7 4 6 9 15 20 17 18 20 19 21 23 24 25 26 27 27 26 30 32 32 34 34 33 34 33 32 31 30 29 27 26 25 25 25 25 25 25 24 24 23 22 21 20 20 19 18 17 17 16 16 16 16 17 17 17 15 13 11 10 9
6 1 6 8 7 11 10 8 10 8 7 8 10 11 8 11 12 6 7 8 7 2 2 5 5 7 7 9 9 12 17 17 17 19 20 22 24 23 23 25 28 31 32 32 32 32 33 34 35 34 33 33 33 32 31 29 28 27 26 25 25 25 25 25 24 22 20 20 20 20 20 19 19 19 18 18 18 18 18 17 16 14 12 11 10 9
6 1 7 11 9 11 10 9 12 10 7 7 10 11 10 15 12 7 12 9 5 5 7 7 6 7 6 10 12 9 12 16 17 18 22 24 24 23 23 24 26 30 32 33 33 32 33 33 33 34 34 34 34 33 31 30 28 27 26 25 25 25 26 25 24 22 21 21 22 22 21 21 21 21 21 20 19 17 16 15 14 13 12 11 10 9
4 3 7 10 11 12 10 9 12 12 9 6 7 8 9 13 12 11 14 10 6 5 7 12 10 7 4 8 12 11 11 15 16 18 22 25 25 25 26 27 27 29 32 34 34 33 33 33 32 33 34 35 34 33 31 30 29 27 26 26 25 26 26 25 24 23 22 23 23 23 22 22 21 21 21 19 17 16 15 14 14 13 12 12 11 11
4 7 6 7 11 12 10 10 9 11 10 5 7 11 11 11 13 15 14 11 6 1 4 11 9 6 6 6 7 11 11 12 15 17 21 25 27 27 29 30 30 32 35 37 37 36 35 34 33 33 34 34 34 32 31 31 29 28 27 26 26 26 27 26 24 24 24 25 25 25 24 23 22 22 21 18 16 16 16 15 15 15 14 14 13 13
4 9 9 9 10 9 8 7 8 11 8 2 6 11 11 11 14 15 13 9 5 3 4 8 6 4 8 4 4 9 12 12 17 19 20 25 29 29 31 32 32 35 39 40 40 39 37 37 36 35 34 34 33 33 32 31 29 28 27 27 27 28 28 27 26 26 26 26 27 27 26 25 24 23 21 19 18 18 18 17 16 16 16 16 15 15
2 8 12 12 9 8 6 3 9 14 7 3 7 8 6 5 8 9 9 6 4 5 7 9 10 6 7 4 5 6 9 12 16 17 19 25 29 30 31 33 33 33 38 42 41 40 39 38 37 36 36 35 34 34 33 31 29 28 28 28 28 29 29 28 28 28 28 28 28 28 28 27 26 24 23 21 20 19 19 19 18 17 17 17 17 16
1 3 8 9 7 8 7 4 8 12 7 9 10 8 7 5 4 3 1 3 4 6 8 10 15 11 7 5 7 7 9 13 14 12 15 20 26 30 30 32 32 32 38 43 42 42 41 39 38 38 37 36 36 35 33 32 32 31 30 30 29 30 30 30 30 30 30 29 29 30 29 28 27 26 24 23 22 21 21 20 19 19 19 19 18 17
4 4 4 4 6 8 8 6 6 7 8 10 8 8 7 4 3 3 2 2 5 6 6 8 14 13 10 6 6 9 11 12 12 12 14 18 26 31 31 32 33 34 39 42 43 43 42 41 40 40 39 38 38 37 36 35 34 33 32 32 31 31 31 31 31 31 31 31 30 31 30 29 28 27 26 25 24 23 22 21 20 20 20 20 19 17
7 8 2 2 6 10 10 7 5 5 7 8 7 9 8 4 4 4 3 4 6 5 1 3 10 10 9 9 6 8 12 12 14 15 14 16 23 29 32 35 36 36 38 41 44 45 44 43 42 41 41 40 40 39 38 37 35 35 34 33 33 33 32 32 32 33 33 32 32 32 31 30 29 28 28 27 26 24 23 21 20 21 21 20 19 18
6 5 4 6 5 9 13 9 7 6 7 9 9 10 9 6 6 7 4 2 4 5 1 4 8 6 5 9 10 13 17 17 17 19 15 12 16 23 31 34 35 37 39 41 45 46 46 46 44 42 41 41 41 39 38 38 37 36 35 35 35 35 34 33 33 34 34 34 34 33 33 31 31 30 29 29 27 26 23 21 21 21 20 20 19 18
9 6 8 10 4 8 14 11 7 8 8 10 7 8 9 6 6 6 5 4 4 3 2 5 6 6 4 2 5 11 14 14 15 18 16 14 15 18 24 28 31 35 36 39 46 47 47 48 45 43 42 41 41 39 39 39 38 38 36 36 37 36 35 35 35 35 35 36 35 35 34 33 33 32 30 29 28 26 23 21 21 21 20 19 18 17
10 7 5 6 4 9 12 7 6 9 8 7 4 6 9 7 6 3 2 3 3 2 3 5 4 4 3 5 7 7 9 10 12 14 16 18 17 16 20 26 31 33 34 39 46 49 49 49 47 46 44 42 41 40 40 40 39 39 38 37 38 37 37 36 36 36 37 37 37 36 36 35 34 33 31 31 29 26 24 22 21 20 19 19 17 16
7 5 3 4 4 8 10 8 9 9 7 4 5 7 4 3 6 4 1 1 2 4 4 5 4 3 1 8 9 7 8 10 10 9 13 16 17 18 21 27 32 34 37 42 48 51 51 50 49 49 47 45 43 42 41 40 39 39 39 39 39 38 38 38 37 38 38 38 38 38 38 37 36 34 33 32 30 27 24 22 21 20 19 18 17 16
5 5 5 8 9 9 10 11 11 11 7 4 7 8 4 1 2 2 3 3 4 8 4 4 7 5 3 4 3 2 7 11 11 9 9 11 16 20 24 30 36 38 42 46 49 52 53 52 51 50 49 47 45 42 41 40 39 39 39 39 39 39 39 39 39 39 39 39 40 40 40 39 37 36 35 33 30 27 25 24 22 21 20 19 18 17
5 6 4 10 13 9 8 9 10 10 7 1 4 9 6 4 5 2 4 5 6 8 4 4 7 6 6 5 3 4 7 9 10 6 8 11 16 21 24 30 35 39 41 44 47 50 52 53 53 52 50 48 46 44 42 40 39 39 40 40 40 40 40 40 41 41 41 41 42 42 41 39 38 37 36 34 30 28 27 25 23 22 21 20 19 19
5 7 4 5 7 7 7 8 10 11 6 1 3 8 4 4 5 4 3 4 6 7 4 5 5 4 6 6 6 10 9 8 10 7 8 12 17 22 24 26 31 37 40 43 45 48 51 53 53 53 51 49 47 45 42 41 41 40 40 41 42 42 42 42 42 43 43 43 44 43 41 40 39 38 37 35 32 30 28 25 23 21 21 20 20 20
5 6 5 2 2 5 7 8 12 13 9 5 7 8 5 2 2 3 3 2 4 6 5 6 7 4 4 5 8 12 11 10 11 9 7 11 17 23 24 25 32 38 40 41 43 47 49 50 51 51 50 49 47 45 43 43 43 41 41 42 43 44 44 44 44 44 44 44 44 43 42 41 41 40 39 37 34 32 29 25 22 20 19 20 21 21
5 4 6 4 4 7 9 8 11 15 12 10 8 8 9 7 4 6 7 3 3 5 4 5 8 5 6 6 8 10 11 11 12 9 8 11 14 17 21 26 33 37 39 40 43 45 47 48 49 49 49 48 48 48 47 45 44 43 43 43 43 44 45 45 45 45 45 46 45 44 44 43 43 42 40 39 36 33 30 27 23 21 21 22 22 21
4 3 6 8 7 10 10 7 5 9 11 12 11 10 11 10 9 10 9 4 4 3 1 1 6 5 5 6 8 9 10 11 10 8 9 12 13 15 19 24 30 34 36 39 41 43 44 46 46 46 47 47 47 48 48 46 45 44 44 44 44 45 46 45 45 45 46 46 45 45 45 45 44 43 41 39 37 35 33 29 25 24 24 23 22 22
4 2 5 7 6 7 7 5 2 2 7 11 12 12 12 12 13 12 6 4 5 6 4 3 6 5 3 2 4 6 8 9 11 11 12 15 16 17 19 23 27 31 34 37 40 41 41 43 44 44 45 45 45 46 47 47 47 45 45 45 45 46 45 45 45 46 46 46 46 45 46 46 45 42 39 38 38 38 35 31 27 26 25 23 21 22
5 3 5 6 6 6 7 8 6 4 6 8 8 10 13 15 15 8 2 3 6 9 11 8 7 5 3 1 2 4 7 9 13 14 13 14 15 15 17 21 25 28 32 36 38 39 40 41 41 42 42 43 43 44 45 47 48 47 47 46 46 46 46 45 45 46 47 46 46 47 47 47 44 41 40 41 42 42 37 32 30 27 24 23 22 22
6 5 7 8 9 9 9 10 8 5 5 5 6 9 13 17 18 9 3 4 7 8 11 10 7 4 2 1 2 4 6 9 13 14 12 14 18 17 18 21 24 27 32 35 37 38 39 39 39 39 40 40 41 41 42 44 46 47 48 47 47 46 46 46 46 47 48 46 47 48 47 45 45 44 45 46 46 44 39 34 32 28 25 24 23 23
2 3 9 11 11 11 10 9 6 5 6 8 9 12 12 15 17 11 5 7 5 4 7 9 7 6 7 6 5 6 7 10 12 10 9 15 23 22 20 21 23 28 32 34 36 36 36 37 38 37 38 38 38 39 38 40 42 45 46 46 47 46 46 47 47 48 49 48 48 48 47 48 51 51 50 51 51 48 43 39 35 32 29 28 27 27
2 5 13 15 14 15 15 14 11 10 12 13 13 15 15 15 17 15 13 10 7 5 9 8 7 9 11 9 9 10 10 9 8 8 11 19 25 23 20 19 21 26 30 32 35 35 35 37 37 37 37 36 36 36 36 37 39 41 42 43 44 46 46 47 48 48 48 48 46 47 49 53 56 54 54 55 54 50 47 42 38 35 33 31 31 31
3 7 13 16 17 18 20 19 13 12 13 14 15 17 17 17 18 18 17 12 9 8 12 7 8 10 11 11 11 11 11 10 13 18 20 20 22 21 19 20 23 26 30 34 36 36 36 36 36 36 35 34 35 35 34 36 38 38 39 39 40 43 44 46 47 47 46 44 44 47 50 53 54 53 52 53 52 49 47 42 38 37 37 36 34 33
2 5 6 11 16 18 21 20 14 13 13 13 15 17 16 18 20 20 20 17 14 15 15 9 10 12 12 12 12 13 17 17 18 20 19 17 20 22 22 22 23 27 33 36 37 37 37 35 35 34 34 33 33 32 32 33 34 34 34 35 38 40 42 43 45 43 41 41 43 45 47 48 49 49 48 48 50 50 47 42 38 39 41 41 38 36
2 3 1 5 9 13 17 17 14 15 16 15 17 16 15 16 17 18 17 14 13 15 13 10 10 10 10 11 10 9 12 12 11 11 14 18 22 22 22 24 25 29 35 38 38 38 36 34 34 34 33 32 30 29 29 29 29 31 33 35 37 38 37 38 39 38 38 39 41 42 43 44 46 47 47 45 46 48 48 46 45 45 44 44 43 41
2 2 0 2 5 8 10 14 15 15 15 17 19 17 15 14 13 13 11 9 10 12 9 6 7 7 7 8 7 5 5 7 9 11 15 20 21 22 26 29 30 32 36 37 39 39 36 34 34 33 31 30 29 28 28 28 30 32 33 33 31 30 31 32 33 33 34 36 39 40 40 42 43 44 42 37 36 41 45 49 51 52 50 48 46 45
2 2 2 1 5 7 7 10 13 11 10 12 14 15 15 12 11 11 10 10 13 13 9 7 8 8 5 4 6 8 8 9 11 13 17 20 22 25 29 32 34 35 37 40 41 40 37 35 33 31 30 28 27 28 29 29 30 28 24 22 21 21 24 25 26 28 30 32 35 36 37 39 38 38 38 34 33 37 44 49 52 53 54 51 46 43
3 3 3 1 4 7 5 4 6 7 9 8 7 11 16 16 16 15 11 11 13 11 6 4 6 6 5 6 8 9 8 7 8 11 16 19 20 24 28 31 32 32 34 37 38 38 37 35 33 31 29 28 29 29 27 23 19 15 13 14 14 16 18 19 20 22 24 27 30 32 34 35 36 36 37 38 38 38 41 47 51 53 54 51 45 39
5 4 3 2 3 4 1 3 6 8 8 4 1 4 10 15 18 15 6 4 7 7 4 5 7 6 4 6 6 6 7 8 7 8 11 14 18 21 25 29 28 26 27 28 31 35 36 35 34 32 31 30 28 23 17 12 10 10 10 11 11 11 12 13 14 15 17 21 24 27 30 32 34 36 36 37 39 37 37 42 49 54 53 47 42 38
6 5 2 2 3 2 1 4 6 5 1 1 1 2 3 6 10 9 4 2 4 5 6 8 9 5 3 4 5 5 7 9 6 4 5 10 15 17 19 23 26 27 26 23 23 30 34 34 32 30 27 23 18 13 12 13 13 12 11 10 8 7 6 6 7 9 11 15 19 21 25 28 31 33 34 35 37 37 36 39 44 51 51 42 36 37
5 5 2 3 2 2 3 4 3 3 3 3 2 3 3 2 5 7 7 6 4 3 6 7 7 5 4 5 7 8 9 9 6 2 3 6 12 15 15 16 17 19 21 19 18 22 25 24 21 18 16 15 16 18 18 17 15 13 11 8 6 5 4 4 4 5 6 9 13 16 19 23 26 29 31 33 34 34 35 38 43 50 50 42 38 40
5 3 1 3 2 1 3 4 3 6 6 4 3 3 1 3 3 4 5 5 4 2 6 7 7 7 7 6 8 11 10 6 5 1 7 6 6 10 13 14 12 11 14 15 15 16 17 15 15 17 20 22 22 21 18 16 14 11 9 7 6 5 4 3 2 1 3 6 9 12 15 19 22 25 27 29 31 32 33 36 41 45 46 44 42 41
4 1 0 3 2 1 2 5 5 6 4 1 2 2 3 4 3 3 6 6 3 1 3 6 7 7 6 7 11 12 8 5 4 1 8 6 1 5 9 12 12 11 12 13 15 18 20 21 25 27 26 24 21 18 16 14 12 10 9 9 8 6 5 3 2 1 2 5 7 10 13 16 19 21 24 26 28 28 30 33 36 36 38 40 38 36
4 1 2 5 3 1 1 4 5 4 1 3 5 7 7 5 2 6 8 5 2 2 2 4 5 6 7 11 12 7 2 3 4 2 5 5 7 9 9 12 14 15 16 19 22 25 28 29 30 28 25 22 19 17 15 13 12 11 11 10 9 8 6 4 3 2 2 4 6 9 11 13 16 19 23 24 25 26 28 32 33 33 34 34 33 32
3 1 3 5 3 0 1 3 5 3 1 4 10 12 8 2 5 8 7 2 3 3 2 3 8 9 9 11 10 6 6 9 11 11 14 17 20 21 21 21 21 21 21 22 24 27 29 29 27 24 21 19 17 15 14 12 10 10 10 10 10 9 6 3 2 1 2 4 6 7 8 10 14 18 20 21 21 24 26 27 29 30 32 33 32 31
4 2 2 3 3 1 0 3 5 2 3 10 18 15 5 3 4 4 3 3 5 8 10 11 13 16 17 18 18 16 17 18 20 24 28 31 33 33 32 31 31 30 27 25 24 24 25 24 22 19 16 13 11 12 11 9 7 6 7 9 8 5 3 1 1 1 3 4 5 5 5 8 12 14 16 17 19 21 21 21 24 29 33 33 31 30
7 5 1 2 2 0 1 2 5 3 4 18 21 11 3 1 2 6 8 7 10 15 18 17 16 18 21 23 23 23 24 26 29 34 37 37 37 37 35 34 34 34 32 29 26 23 22 21 19 16 15 12 10 9 8 6 4 2 2 4 4 3 3 2 1 3 4 4 4 3 4 7 9 10 11 14 17 19 19 20 25 30 30 29 30 30
7 7 3 1 2 1 1 1 2 2 9 19 16 3 4 7 9 10 9 9 13 18 21 20 20 23 26 27 27 28 31 34 36 38 38 38 37 36 35 33 32 31 30 29 27 24 22 21 20 17 16 14 11 9 7 6 4 3 2 1 3 4 2 1 3 4 4 4 3 3 4 5 6 7 9 11 14 18 20 24 29 31 29 27 28 27
2 4 6 4 1 1 2 1 4 7 12 16 13 8 10 15 18 14 12 12 15 20 24 24 25 28 30 31 32 34 35 35 34 34 33 33 33 33 33 32 30 29 27 26 24 21 20 20 18 16 14 12 11 11 11 9 7 6 5 3 2 2 1 2 3 3 3 3 3 3 4 5 6 7 8 10 14 17 20 24 26 26 26 26 24 21
3 4 7 6 3 2 5 1 5 7 11 15 14 11 10 13 16 16 17 18 18 21 25 24 23 25 26 28 31 32 31 30 30 29 27 26 26 26 26 26 25 24 22 21 20 18 16 16 15 13 12 11 11 10 9 9 7 6 5 2 2 2 2 3 3 2 1 3 3 3 5 7 8 8 8 11 14 15 19 23 23 21 23 23 20 17
4 6 4 5 8 5 4 3 2 5 9 12 10 9 10 13 16 18 21 22 22 24 25 24 23 23 23 24 26 27 26 26 26 25 23 22 21 20 19 18 18 16 14 14 14 12 10 9 8 8 9 8 6 3 4 5 4 5 6 5 6 6 4 2 2 1 3 4 4 4 6 8 9 10 11 13 14 14 16 21 22 21 21 20 18 17
6 11 6 7 10 4 4 7 5 3 4 7 6 5 8 14 20 21 21 22 23 25 25 25 24 23 22 22 22 23 23 23 22 21 20 18 17 16 15 14 13 11 9 8 7 7 7 6 5 6 6 4 3 7 8 8 8 10 10 9 10 9 6 4 3 4 5 5 4 4 7 9 10 12 14 16 16 15 15 17 20 20 20 20 19 17
10 10 4 5 7 5 6 7 7 6 3 4 3 4 9 16 22 23 23 24 26 28 29 29 28 26 24 23 22 23 24 22 20 20 19 17 15 14 13 11 10 9 7 6 5 6 7 7 6 5 4 2 4 7 8 8 8 10 11 11 10 8 5 6 6 6 5 5 4 5 7 9 11 14 16 18 19 17 13 14 18 19 19 19 19 17
8 4 1 4 6 5 7 12 12 8 4 2 4 6 11 19 24 23 23 24 25 26 27 27 27 26 24 21 20 20 22 21 19 18 18 17 15 13 11 8 6 5 5 5 6 6 6 6 5 5 4 3 3 4 5 6 8 10 10 9 8 7 8 8 7 6 5 5 5 5 6 8 11 15 17 19 20 17 14 14 17 20 20 20 18 16
8 7 6 3 2 2 10 19 17 10 8 10 12 11 13 20 24 23 23 24 23 22 22 22 22 22 22 21 19 19 20 20 18 17 17 17 15 12 10 7 4 3 3 2 3 4 3 4 5 6 6 6 6 5 5 6 8 9 9 9 10 10 10 9 7 7 7 7 6 6 6 8 10 13 17 19 19 17 15 16 20 22 20 17 13 12
Wind_Direction
185 191 202 198 186 179 181 195 205 188 181 184 190 204 195 182 171 153 124 149 172 190 214 211 232 239 214 177 188 191 194 200 201 198 198 197 197 197 199 200 204 212 215 216 218 216 215 218 220 221 221 220 217 215 216 217 217 217 218 221 223 223 220 219 220 221 223 225 228 229 230 233 238 242 246 248 249 250 255 256 256 252 249 253 253 253
189 210 207 193 183 178 182 193 194 180 181 183 189 205 203 190 161 146 137 148 167 192 215 213 248 249 242 204 194 193 198 207 205 202 202 201 200 200 202 203 207 213 213 215 219 217 217 219 220 222 221 220 218 214 214 216 218 219 220 222 224 224 222 221 221 222 224 226 229 231 232 235 240 244 247 250 252 254 258 259 258 255 251 254 259 262
200 220 201 185 189 185 183 186 183 181 184 187 188 194 204 182 122 120 139 145 162 200 209 188 233 241 236 221 207 201 207 215 211 208 206 203 202 204 204 205 209 210 207 214 220 218 218 219 219 221 220 220 219 217 216 216 218 220 222 223 223 224 225 225 224 223 225 227 229 232 236 239 242 245 246 248 251 252 252 251 251 253 255 259 260 263
201 219 189 170 181 185 177 179 181 184 192 189 179 191 196 169 165 165 154 151 156 190 203 170 230 248 215 219 221 212 214 219 218 215 212 209 209 209 208 208 210 210 209 216 220 219 220 220 220 220 220 221 221 221 221 219 219 219 221 222 222 223 225 227 226 224 226 228 229 232 237 240 241 243 244 247 248 247 245 246 251 257 262 262 259 260
206 202 158 159 175 187 179 178 181 184 197 193 190 200 182 171 194 184 129 137 142 130 139 157 243 258 210 212 224 211 212 220 220 217 217 218 218 216 214 213 214 217 218 220 221 220 222 222 221 221 221 222 223 224 223 221 220 220 220 222 222 224 226 227 226 225 226 227 228 230 233 236 238 240 241 242 242 243 245 248 257 263 263 260 257 257
224 138 152 164 180 192 182 180 188 186 190 202 208 210 179 173 187 148 130 142 161 210 200 180 246 261 199 211 224 200 199 215 217 217 220 221 220 218 217 217 217 220 223 225 225 224 224 224 223 223 223 224 225 225 224 223 222 222 222 223 225 226 227 228 227 225 225 227 228 228 229 231 233 236 238 239 241 246 251 256 262 262 259 258 255 255
219 157 163 173 175 186 191 191 193 188 189 203 201 193 172 167 167 152 158 174 200 225 193 184 224 257 206 213 217 197 197 210 211 217 221 221 219 217 217 219 218 218 222 226 228 227 226 225 224 224 224 224 225 224 224 225 224 225 225 225 227 229 230 230 226 224 225 227 229 230 231 232 234 236 238 241 244 249 254 256 257 254 254 257 256 254
172 160 176 186 178 185 195 194 192 192 196 190 157 161 161 161 164 163 173 192 203 189 156 185 216 263 258 240 196 191 205 214 215 219 221 220 219 217 218 220 218 219 223 225 227 227 226 225 223 223 223 222 222 223 224 225 225 226 226 226 228 231 232 231 226 224 226 227 228 230 231 232 234 237 240 243 245 248 251 252 253 251 252 255 254 253
158 182 184 181 188 195 195 184 176 186 199 185 140 156 160 165 169 169 181 197 190 172 192 196 195 242 252 252 125 185 209 221 223 222 220 218 217 216 216 218 219 221 225 227 228 228 226 225 224 223 223 222 222 224 225 225 225 227 228 228 228 231 233 231 227 225 226 228 229 230 232 232 233 234 237 239 240 245 250 251 253 252 253 253 253 252
169 201 189 181 194 199 193 163 169 185 197 126 129 128 116 136 158 170 190 182 153 201 219 195 185 214 250 219 144 181 212 225 227 223 221 217 215 215 215 217 218 220 224 228 230 231 229 227 226 225 226 226 225 226 226 226 226 227 228 228 228 230 231 229 226 225 227 229 230 230 231 231 232 232 233 235 236 240 246 250 251 252 253 253 252 251
238 198 182 189 200 187 186 179 180 190 165 121 127 117 88 80 115 127 159 142 156 214 226 199 189 207 253 221 170 187 211 216 220 223 220 215 214 215 214 215 216 216 223 227 228 231 233 231 230 229 229 229 228 228 228 228 228 228 228 228 228 229 230 228 226 225 227 228 230 230 230 230 231 231 231 234 236 238 242 248 250 251 252 251 251 250
244 213 176 204 200 173 179 191 192 189 156 139 137 136 124 98 116 111 88 174 203 219 226 204 192 205 242 240 182 203 222 217 216 224 217 207 210 212 212 214 214 216 222 226 227 229 231 231 230 230 230 230 229 229 229 229 229 228 228 228 228 228 228 227 226 225 227 228 229 230 231 231 231 231 232 235 238 239 242 248 250 250 250 248 248 245
225 222 209 221 194 179 184 186 179 176 178 178 156 152 164 157 164 178 175 194 216 226 241 171 184 203 241 255 241 228 239 234 226 230 225 213 209 208 210 212 212 215 220 223 226 228 228 229 229 230 230 229 229 229 229 229 229 228 228 227 227 228 228 227 226 226 227 228 229 230 231 232 231 232 232 234 238 240 243 248 249 249 248 247 247 245
203 227 232 215 194 188 193 192 183 172 185 196 174 170 188 177 178 190 172 181 219 226 237 144 180 209 245 256 249 238 246 244 232 235 236 226 213 207 211 213 212 216 219 221 225 226 226 228 229 229 230 230 228 228 228 228 228 228 228 227 227 228 228 228 227 227 228 228 229 230 231 232 232 231 231 233 236 238 242 247 248 250 250 249 249 249
200 218 207 201 181 177 197 209 190 156 174 199 184 187 202 186 193 200 175 193 200 181 141 142 179 210 191 242 244 234 256 263 245 240 231 226 225 214 211 211 212 216 217 220 224 225 227 229 228 228 229 229 229 228 227 228 228 228 228 227 227 227 227 228 228 228 228 229 230 230 231 231 231 231 232 233 234 236 240 244 247 249 250 250 251 252
211 229 192 193 181 170 193 205 160 151 180 196 169 199 211 184 180 197 188 199 174 148 167 166 209 230 217 306 289 249 271 276 254 240 222 219 218 204 201 205 210 212 212 217 223 225 228 229 229 228 228 228 229 228 228 227 227 227 227 227 226 226 227 228 228 228 229 230 231 231 231 230 230 230 231 232 232 233 236 240 244 248 250 250 252 252
206 225 159 173 194 184 189 176 169 189 187 160 183 205 207 161 170 180 184 84 136 221 199 172 228 249 249 284 275 250 260 261 250 235 221 215 200 193 199 203 207 209 210 216 221 224 226 228 229 229 228 228 228 228 228 227 226 226 226 226 226 227 227 228 229 229 230 231 232 233 231 230 229 229 230 231 231 232 234 237 241 245 248 248 248 248
202 212 169 184 205 204 195 182 193 207 179 154 200 182 105 55 191 181 202 167 191 230 213 167 219 227 202 248 270 251 250 251 248 230 213 203 191 198 207 208 210 211 214 219 222 223 225 226 226 227 228 228 227 226 227 226 225 225 226 227 228 228 227 228 229 229 230 231 232 233 231 230 229 229 230 230 230 231 234 236 238 241 243 243 243 244
198 219 193 194 205 190 174 192 209 208 194 233 195 160 144 200 191 170 213 192 198 229 222 181 214 227 214 214 243 256 253 256 256 222 188 195 198 205 211 211 212 212 214 219 220 221 224 225 225 225 226 227 227 226 226 226 226 226 228 229 230 230 229 229 230 230 230 231 232 232 231 231 230 230 230 229 229 231 233 236 239 242 243 242 241 243
180 224 214 191 200 173 162 197 216 205 194 332 171 169 185 217 186 182 197 184 203 226 226 205 211 214 211 202 213 239 250 256 257 234 195 202 205 209 211 208 208 209 212 217 218 221 223 223 224 224 224 226 227 227 226 226 226 227 229 230 230 231 231 231 232 232 232 232 232 232 232 232 232 232 232 230 229 231 233 235 239 244 246 243 243 245
170 219 217 166 145 181 188 199 215 211 193 186 195 187 183 171 158 197 195 165 209 219 212 224 231 203 186 194 205 224 237 239 244 244 223 214 213 214 212 207 208 210 213 217 219 221 222 221 222 223 224 225 226 228 227 226 226 226 228 230 230 231 231 231 232 232 233 233 234 234 233 233 232 232 233 232 232 233 235 236 239 246 250 249 247 249
178 195 208 193 170 204 212 198 211 222 209 196 200 193 186 179 164 201 214 182 192 221 202 224 246 220 170 187 204 216 232 235 237 240 241 236 224 217 216 216 215 214 215 219 220 221 221 220 220 221 223 224 225 227 228 227 227 226 226 229 230 231 232 233 233 233 234 235 235 235 235 234 233 233 234 234 234 235 236 236 237 240 244 248 250 252
174 168 206 214 212 216 214 188 198 235 221 205 204 200 197 195 190 207 219 180 168 216 144 197 257 238 170 184 203 213 228 240 246 246 251 254 243 230 225 221 219 219 220 221 220 220 220 219 219 220 222 223 224 225 227 228 228 227 227 228 229 231 233 233 234 235 236 236 237 237 237 237 237 236 236 237 238 239 237 235 234 235 238 242 247 252
151 154 204 219 231 229 220 192 143 239 217 211 211 203 200 206 208 214 212 169 184 197 167 199 245 219 166 180 212 233 249 258 259 246 242 254 255 245 233 222 220 221 220 219 218 218 219 219 219 220 222 223 223 225 226 228 229 230 229 229 230 232 233 234 236 237 238 239 239 239 239 240 240 238 238 239 241 241 239 237 236 237 238 240 244 249
171 189 198 211 225 225 221 213 205 199 202 215 218 206 205 209 211 209 142 158 212 196 183 214 236 196 172 164 186 246 261 259 256 245 239 252 256 247 233 225 221 218 216 216 215 216 218 219 220 221 222 223 223 224 226 228 230 230 231 232 232 233 234 235 237 239 240 240 241 242 243 242 240 238 237 238 240 240 239 237 238 239 239 240 243 249
182 195 186 204 218 216 215 216 213 198 191 213 218 207 210 212 209 199 133 196 217 186 185 218 228 181 174 228 211 234 248 252 254 247 243 251 253 248 236 227 220 215 214 214 214 215 217 219 221 221 221 222 223 223 225 227 230 231 233 234 235 236 237 238 238 240 241 241 242 244 243 240 238 237 235 235 238 239 238 236 237 238 239 241 243 246
178 196 189 203 217 217 220 219 199 176 190 206 210 206 207 213 211 200 193 214 194 145 198 217 213 202 201 202 216 228 229 241 249 243 237 246 249 247 238 228 221 216 215 213 213 214 215 218 220 220 220 222 223 224 225 227 230 232 234 236 237 238 240 241 242 243 243 243 243 242 240 239 241 240 234 231 233 235 234 234 235 232 232 237 240 238
191 210 198 203 213 217 224 219 193 189 208 209 207 207 200 201 205 204 213 211 150 156 221 206 187 217 213 197 210 221 220 232 246 236 230 238 242 240 233 227 220 215 213 213 213 213 215 217 218 219 220 221 222 225 226 227 230 233 235 237 239 240 242 245 246 246 246 245 242 240 241 243 246 244 236 231 230 233 234 232 232 231 229 232 235 234
218 227 205 204 212 215 223 223 200 191 212 211 210 212 200 194 200 207 219 211 166 200 233 196 170 212 217 208 213 216 213 216 225 227 227 232 236 232 225 219 213 210 210 211 212 214 216 217 218 219 220 221 223 225 226 228 230 233 236 239 240 242 243 246 247 248 248 245 243 244 246 248 248 248 244 233 228 233 238 233 232 233 231 231 233 232
230 248 213 209 217 218 223 225 205 196 212 213 211 210 202 200 200 202 214 211 197 219 232 202 188 209 215 215 217 219 219 218 222 226 225 226 227 221 215 212 207 207 210 212 212 213 215 218 219 220 220 221 223 225 227 229 231 233 236 238 240 242 242 244 248 250 248 247 247 249 250 251 252 252 248 235 223 227 236 237 238 239 234 232 233 231
217 257 194 198 224 230 229 227 214 207 216 220 216 208 201 204 205 205 211 204 198 218 223 203 203 214 217 220 223 226 226 220 221 221 217 220 218 211 207 208 206 208 212 214 214 213 214 217 219 220 221 222 223 224 227 230 232 235 236 236 239 242 244 246 251 252 250 248 250 251 251 253 253 254 252 238 220 219 228 232 235 241 238 232 232 231
248 267 34 170 233 241 228 224 220 213 218 228 229 216 198 198 205 209 209 191 189 207 208 195 211 223 221 221 228 234 217 209 216 217 216 219 215 207 207 208 209 212 214 215 216 214 213 215 218 220 221 221 223 225 228 230 232 233 234 238 244 249 251 253 255 256 253 250 250 252 253 254 257 257 251 233 210 213 226 229 229 235 236 231 229 230
283 298 317 218 252 262 240 219 214 207 214 230 233 224 208 195 197 206 205 196 196 200 199 203 219 225 208 186 215 228 218 215 225 223 220 219 215 213 214 214 214 214 213 215 216 214 211 212 216 218 219 222 224 225 227 230 233 237 241 248 254 255 255 257 259 259 256 252 252 254 257 257 256 252 246 237 227 225 227 228 228 231 232 229 227 226
297 304 302 287 266 277 269 187 179 199 217 224 224 220 213 202 199 205 205 204 205 203 201 218 227 222 194 180 205 220 215 227 253 249 237 229 223 221 221 221 220 218 217 219 219 215 212 212 215 217 218 221 223 225 230 233 237 243 245 246 248 248 251 256 259 259 258 255 255 257 258 257 253 251 253 254 251 241 230 228 228 228 228 227 224 220
286 281 264 240 258 288 333 143 194 224 223 211 174 213 217 213 208 204 189 181 207 214 224 239 231 219 197 198 217 226 216 222 245 260 252 242 235 231 229 227 226 224 224 225 222 217 213 213 215 217 217 220 224 227 229 222 211 209 209 214 222 230 240 249 254 258 260 257 257 258 258 257 255 257 260 260 256 249 241 235 230 224 223 222 217 212
268 273 257 231 235 269 271 201 227 258 263 130 89 118 169 202 192 184 174 167 202 218 225 233 235 228 200 210 230 227 196 186 186 211 251 247 239 237 237 236 235 232 232 234 229 223 219 215 216 219 220 221 217 198 179 171 170 174 179 184 190 200 217 233 245 253 256 256 257 259 259 260 260 259 260 260 257 253 248 241 231 224 222 218 212 209
238 258 266 261 234 235 267 251 254 296 276 218 178 135 135 170 169 182 201 190 172 194 217 233 253 252 218 205 205 191 173 160 154 130 337 276 237 231 235 238 240 239 239 241 237 230 226 220 215 211 203 187 167 156 154 156 157 160 162 161 157 157 175 200 222 238 247 253 258 261 262 264 264 263 262 261 260 259 255 244 229 222 220 216 211 212
200 238 271 272 257 204 269 275 260 253 237 189 144 113 36 316 282 248 221 182 161 201 218 227 244 234 211 183 167 170 172 177 182 95 357 327 242 225 227 220 216 223 229 228 218 210 208 198 176 161 156 152 151 152 154 154 153 149 143 139 136 137 147 155 171 213 251 258 261 267 269 268 268 269 268 264 261 259 252 236 221 215 214 213 213 214
132 76 234 261 279 143 261 273 254 244 242 101 40 3 347 322 294 241 211 191 174 212 229 227 230 221 201 165 152 160 171 178 172 22 353 345 205 197 206 194 183 183 190 191 181 171 165 157 149 145 146 147 150 155 156 154 150 146 145 147 149 151 155 159 166 193 255 268 272 274 272 272 274 271 265 260 257 252 239 224 215 212 211 213 216 217
108 72 260 263 280 93 246 273 257 242 288 6 345 332 324 311 225 194 202 194 117 22 286 229 198 176 163 150 142 145 168 155 142 73 21 58 114 130 145 150 149 150 152 153 151 148 146 145 145 146 149 150 151 155 156 153 153 157 161 163 171 180 185 188 195 219 262 277 283 281 277 278 276 266 258 256 257 252 237 222 216 216 215 212 210 210
93 25 291 278 277 86 184 264 271 260 89 10 336 324 315 275 189 195 202 167 64 36 12 129 135 127 124 126 123 104 83 96 109 108 101 103 106 105 108 116 121 122 126 133 139 143 143 143 145 147 148 150 154 156 155 154 159 171 181 189 196 201 204 205 201 239 282 294 296 293 290 282 269 259 257 259 259 250 233 219 215 215 211 205 203 202
137 180 274 272 259 271 148 262 276 242 85 7 339 323 297 212 197 177 136 91 82 83 81 88 101 103 99 97 100 102 102 101 104 104 102 103 103 100 100 104 106 105 106 110 118 126 129 131 134 136 134 135 143 152 156 159 167 186 208 219 221 215 208 203 200 251 286 302 305 298 284 272 264 258 255 256 252 238 220 209 210 209 205 202 201 199
158 170 217 275 243 171 100 281 273 226 359 347 335 316 270 242 162 120 106 98 90 88 88 84 84 93 100 101 102 105 105 101 97 95 95 96 96 96 97 101 102 103 104 104 104 107 109 107 106 106 105 104 109 124 138 147 151 166 236 243 226 193 173 186 241 277 290 294 292 282 266 261 258 252 247 246 238 224 209 202 201 200 200 202 201 198
162 172 178 217 263 257 122 288 308 317 329 334 334 337 98 97 119 120 107 100 95 93 94 91 87 91 98 103 104 103 100 97 94 92 91 89 89 89 89 90 93 97 101 102 102 106 108 103 95 90 89 89 88 89 89 86 79 67 61 158 177 169 172 243 277 287 292 283 265 249 245 247 240 232 235 231 217 209 210 207 200 197 200 202 200 200
180 168 135 116 280 285 121 229 307 324 330 338 358 41 85 106 115 109 98 98 98 97 97 95 92 91 91 94 96 95 94 94 93 92 90 87 87 88 87 86 86 87 89 92 95 100 106 106 101 97 93 87 82 79 75 66 56 52 56 79 143 169 225 291 300 304 292 257 233 222 222 223 217 215 221 215 202 203 209 205 196 196 202 201 198 206
46 90 99 106 152 130 99 134 289 320 340 350 9 33 66 96 103 97 95 94 90 94 97 97 97 95 92 93 94 93 94 95 95 93 92 90 89 90 90 90 88 86 86 87 87 88 94 101 104 104 102 96 91 82 60 39 30 24 16 357 259 254 291 306 313 318 252 206 195 193 203 208 206 201 204 208 208 211 213 206 196 194 197 197 202 215
53 24 33 141 166 157 126 163 259 337 346 347 1 29 54 78 89 91 93 93 92 95 95 95 97 99 97 96 97 96 97 97 96 95 94 93 93 92 91 91 91 89 88 87 84 84 88 93 102 118 128 125 116 83 2 352 339 314 309 282 247 245 252 260 275 235 184 182 173 178 195 203 203 198 198 202 201 196 199 201 199 197 197 202 208 211
353 343 342 158 159 148 138 154 148 102 13 350 3 37 63 83 92 92 92 94 97 98 98 96 95 93 92 94 96 96 96 95 94 95 93 91 89 87 86 86 83 82 83 82 86 97 104 104 117 149 164 186 254 265 270 274 269 271 272 252 235 235 228 204 182 165 166 161 151 176 195 201 205 204 201 197 188 180 183 191 194 199 204 205 204 200
321 313 312 150 141 96 94 132 142 124 75 347 0 94 103 104 104 101 98 97 96 96 96 94 93 91 90 91 92 92 92 91 90 91 91 90 87 84 83 81 78 79 84 90 109 128 133 136 148 171 192 253 268 250 251 255 245 243 246 236 228 222 192 156 145 147 151 145 153 186 202 206 210 212 208 198 190 190 200 202 198 199 200 197 197 202
334 301 353 115 142 144 155 171 168 146 131 193 180 147 124 116 112 108 104 99 96 96 94 93 92 90 89 89 91 92 92 90 89 90 91 90 86 82 81 80 77 82 91 111 135 143 137 127 126 140 148 148 173 206 234 238 224 223 226 214 194 171 145 130 128 135 140 142 158 182 201 210 214 217 215 209 206 212 228 221 201 193 191 192 200 214
333 302 291 261 232 151 161 168 164 140 130 150 154 147 133 121 114 110 106 101 97 96 96 95 93 88 83 82 83 88 91 91 89 89 90 88 87 85 83 78 71 69 74 106 143 151 141 124 126 141 159 174 189 204 221 227 218 212 200 176 155 141 128 117 114 124 132 139 148 164 187 203 212 215 213 214 220 229 233 216 195 188 191 200 216 230